Location: Newark
(25.4800°N, 85.7200°E)
Time: 08:39:12
(UTC+00:00)

Vanguard 1 Rocket - All Passes

Search period start: 19 August 2019 00:00
Search period end: 29 August 2019 00:00
Orbit: 652 x 4224 km, 34.3° (Epoch: 18 August)

Date Brightness Start Highest point End Pass type
(mag) Time Alt. Az. Time Alt. Az. Time Alt. Az.
19 Aug - 01:51:14 10° WNW 02:00:05 85° NNE 02:18:20 10° ESE daylight
19 Aug - 04:16:52 10° W 04:29:22 47° SSW 04:50:56 10° SSE daylight
19 Aug - 06:50:21 10° WSW 07:01:26 17° SW 07:14:48 10° S daylight
19 Aug - 17:28:40 10° S 17:30:35 12° SSE 17:32:21 10° SE night (unlit)
19 Aug - 19:50:55 10° WSW 19:55:20 89° SSE 20:00:19 10° ENE visible
19 Aug - 22:16:18 10° WNW 22:20:59 38° N 22:28:24 10° ENE visible
20 Aug - 00:40:41 10° WNW 00:47:49 64° NNE 01:02:04 10° E daylight
20 Aug - 03:05:16 10° WNW 03:15:48 62° SSW 03:36:15 10° SE daylight
20 Aug - 05:33:54 10° W 05:46:34 26° SW 06:04:32 10° SSE daylight
20 Aug - 18:40:00 10° SW 18:44:37 42° SSE 18:48:48 10° ENE night (unlit)
20 Aug - 21:05:19 10° W 21:09:33 41° N 21:15:14 10° ENE visible
20 Aug - 23:30:13 10° WNW 23:35:57 47° NNE 23:46:16 10° E visible
21 Aug - 01:54:20 10° WNW 02:02:59 82° SSW 02:20:46 10° ESE daylight
21 Aug - 04:20:31 10° W 04:32:18 37° SSW 04:51:50 10° SSE daylight
21 Aug - 07:00:12 10° SW 07:04:54 11° SW 07:09:58 10° SSW daylight
21 Aug - 17:29:27 10° SSW 17:33:41 21° SSE 17:37:08 10° E night (unlit)
21 Aug - 19:54:03 10° WSW 19:58:27 62° NNW 20:03:18 10° ENE visible
21 Aug - 22:19:39 10° WNW 22:24:19 37° N 22:31:33 10° ENE visible
22 Aug - 00:43:47 10° WNW 00:50:49 74° NNE 01:05:00 10° ESE daylight
22 Aug - 03:08:35 10° WNW 03:18:44 50° SSW 03:37:48 10° SE daylight
22 Aug - 05:39:08 10° WSW 05:49:45 19° SSW 06:03:49 10° S daylight
22 Aug - 16:20:15 10° S 16:22:15 11° SSE 16:24:01 10° SE night (unlit)
22 Aug - 18:42:39 10° SW 18:47:40 68° SSE 18:52:02 10° ENE night (unlit)
22 Aug - 21:08:44 10° WNW 21:12:50 34° N 21:18:14 10° ENE visible
22 Aug - 23:33:24 10° WNW 23:39:06 52° NNE 23:49:28 10° E daylight
23 Aug - 01:57:30 10° WNW 02:05:55 68° SSW 02:22:56 10° SE daylight
23 Aug - 04:24:35 10° W 04:35:24 28° SSW 04:52:14 10° SSE daylight
23 Aug - 17:31:19 10° SW 17:36:48 34° SSE 17:40:53 10° E night (unlit)
23 Aug - 19:57:21 10° W 20:01:38 44° NNW 20:06:15 10° ENE visible
23 Aug - 22:22:56 10° WNW 22:27:35 38° NNE 22:34:48 10° ENE visible
24 Aug - 00:46:53 10° WNW 00:53:47 88° NNE 01:07:43 10° ESE daylight
24 Aug - 03:12:08 10° W 03:21:47 39° SSW 03:38:57 10° SSE daylight
24 Aug - 05:46:29 10° SW 05:53:12 13° SSW 06:01:07 10° S daylight
24 Aug - 16:20:20 10° SSW 16:25:30 20° SSE 16:29:18 10° ESE night (unlit)
24 Aug - 18:45:35 10° WSW 18:50:44 79° NNW 18:55:07 10° ENE night (unlit)
24 Aug - 21:12:09 10° WNW 21:16:09 31° N 21:21:21 10° ENE visible
24 Aug - 23:36:30 10° WNW 23:42:10 61° NNE 23:52:36 10° ESE daylight
25 Aug - 02:00:46 10° WNW 02:08:55 53° SSW 02:24:47 10° SE daylight
25 Aug - 04:29:22 10° WSW 04:38:39 20° SSW 04:51:55 10° S daylight
25 Aug - 15:10:34 10° S 15:13:38 12° SSE 15:16:13 10° SE visible
25 Aug - 17:33:40 10° SW 17:39:53 54° SSE 17:44:16 10° ENE night (unlit)
25 Aug - 20:00:44 10° W 20:04:52 35° N 20:09:15 10° NE visible
25 Aug - 22:26:09 10° NW 22:30:48 41° NNE 22:38:05 10° E visible
26 Aug - 00:50:01 10° WNW 00:56:46 75° SSW 01:10:11 10° SE daylight
26 Aug - 03:16:02 10° W 03:24:57 29° SSW 03:39:41 10° SSE daylight
26 Aug - 16:21:48 10° SSW 16:28:43 31° SSE 16:33:16 10° E visible
26 Aug - 18:48:43 10° W 18:53:50 55° NNW 18:58:09 10° ENE night (unlit)
26 Aug - 21:15:29 10° WNW 21:19:27 31° N 21:24:34 10° ENE visible
26 Aug - 23:39:35 10° WNW 23:45:12 75° NNE 23:55:35 10° ESE daylight
27 Aug - 02:04:14 10° W 02:12:01 40° SSW 02:26:18 10° SE daylight
27 Aug - 04:35:44 10° SW 04:42:07 14° SSW 04:50:05 10° S daylight
27 Aug - 15:10:16 10° SSW 15:16:59 20° SSE 15:21:38 10° ESE visible
27 Aug - 17:36:20 10° WSW 17:42:58 81° SSE 17:47:28 10° ENE night (unlit)
27 Aug - 20:04:09 10° WNW 20:08:09 30° N 20:12:19 10° ENE visible
27 Aug - 22:29:16 10° NW 22:33:57 48° NNE 22:41:22 10° E visible
28 Aug - 00:53:15 10° WNW 00:59:47 57° SSW 01:12:24 10° SE daylight
28 Aug - 03:20:33 10° WSW 03:28:15 21° SSW 03:39:44 10° SSE daylight
28 Aug - 13:59:55 10° S 14:04:37 13° SSE 14:08:23 10° SE visible
28 Aug - 16:23:47 10° SW 16:31:52 47° SSE 16:36:47 10° E visible
28 Aug - 18:52:00 10° W 18:56:59 41° NNW 19:01:09 10° NE night (unlit)
28 Aug - 21:18:43 10° NW 21:22:44 32° N 21:27:53 10° ENE visible
28 Aug - 23:42:42 10° WNW 23:48:13 86° SSW 23:58:22 10° ESE daylight
